Private Wetterstation Wechselburg
Wetterdaten: Montag, 27.02.2017
Datum Zeit Temp. +2m Bodentemp. Temp.+5cm Temp. Wind Windchill X Diff Temp. Feuchte +2m Feuchte +5cm Sonnenschein Luftdruck Regen Wind Richtung Richtung Sonnenschein Taupunkt Windchill Windben
27.02.2017 00:00 9,1 C 5,7 C 8,2 C 9,1 C 9,0 C 0,0 C 56 % 62 % 0 % 1013,6 hPa 0,0 l/m 2,6 km/h (1 Bft) SO 135 0 min 0,8 C 9,0 C 4,8 km/h (1 Bft)
27.02.2017 00:05 9,1 C 5,7 C 8,1 C 9,0 C 8,8 C 0,0 C 56 % 62 % 0 % 1013,6 hPa 0,0 l/m 2,1 km/h (1 Bft) S-SO 157 0 min 0,8 C 8,8 C 4,5 km/h (1 Bft)
27.02.2017 00:10 8,9 C 5,7 C 8,1 C 8,8 C 8,6 C 0,0 C 56 % 62 % 0 % 1013,6 hPa 0,0 l/m 2,1 km/h (1 Bft) W-SW 247 0 min 0,6 C 8,6 C 3,7 km/h (1 Bft)
27.02.2017 00:15 8,8 C 5,7 C 7,9 C 8,7 C 8,4 C 0,0 C 56 % 62 % 0 % 1013,6 hPa 0,0 l/m 2,3 km/h (1 Bft) W 270 0 min 0,5 C 8,4 C 6,0 km/h (2 Bft)
27.02.2017 00:20 8,8 C 5,7 C 7,8 C 8,7 C 8,4 C 0,0 C 56 % 62 % 0 % 1013,6 hPa 0,0 l/m 2,4 km/h (1 Bft) SO 135 0 min 0,5 C 8,4 C 1,9 km/h (1 Bft)
27.02.2017 00:25 8,7 C 5,7 C 7,7 C 8,5 C 8,1 C 0,0 C 56 % 62 % 0 % 1013,6 hPa 0,0 l/m 2,4 km/h (1 Bft) SW 225 0 min 0,4 C 8,1 C 8,2 km/h (2 Bft)
27.02.2017 00:30 8,7 C 5,7 C 7,6 C 8,5 C 8,1 C 0,0 C 56 % 62 % 0 % 1013,6 hPa 0,0 l/m 2,4 km/h (1 Bft) N-NW 337 0 min 0,4 C 8,1 C 3,5 km/h (1 Bft)
27.02.2017 00:35 8,6 C 5,7 C 7,7 C 8,5 C 8,2 C 0,0 C 57 % 62 % 0 % 1013,6 hPa 0,0 l/m 2,7 km/h (1 Bft) W-SW 247 0 min 0,6 C 8,2 C 7,9 km/h (2 Bft)
27.02.2017 00:40 8,6 C 5,7 C 7,8 C 8,5 C 8,3 C 0,0 C 56 % 62 % 0 % 1013,6 hPa 0,0 l/m 2,7 km/h (1 Bft) S 180 0 min 0,3 C 8,3 C 6,1 km/h (2 Bft)
27.02.2017 00:45 8,7 C 5,7 C 7,9 C 8,6 C 8,4 C 0,0 C 56 % 62 % 0 % 1013,6 hPa 0,0 l/m 3,5 km/h (1 Bft) S 180 0 min 0,4 C 8,4 C 9,7 km/h (2 Bft)
27.02.2017 00:50 8,6 C 5,7 C 7,9 C 8,5 C 8,4 C 0,0 C 56 % 62 % 0 % 1013,6 hPa 0,0 l/m 3,5 km/h (1 Bft) W-SW 247 0 min 0,3 C 8,4 C 6,1 km/h (2 Bft)
27.02.2017 00:55 8,5 C 5,7 C 7,8 C 8,5 C 8,5 C 0,0 C 56 % 62 % 0 % 1014,2 hPa 0,0 l/m 3,5 km/h (1 Bft) O-NO 67 0 min 0,2 C 8,5 C 10,9 km/h (2 Bft)
27.02.2017 01:00 8,6 C 5,7 C 7,9 C 8,6 C 8,6 C 0,0 C 56 % 61 % 0 % 1014,2 hPa 0,0 l/m 3,9 km/h (1 Bft) NO 45 0 min 0,3 C 8,6 C 4,8 km/h (1 Bft)
27.02.2017 01:05 8,7 C 5,7 C 7,9 C 8,7 C 8,6 C 0,0 C 56 % 61 % 0 % 1014,2 hPa 0,0 l/m 3,5 km/h (1 Bft) S-SO 157 0 min 0,4 C 8,6 C 2,9 km/h (1 Bft)
27.02.2017 01:10 8,6 C 5,7 C 7,9 C 8,6 C 8,6 C 0,0 C 56 % 61 % 0 % 1014,2 hPa 0,0 l/m 3,2 km/h (1 Bft) S 180 0 min 0,3 C 8,6 C 5,3 km/h (1 Bft)
27.02.2017 01:15 8,5 C 5,7 C 7,8 C 8,6 C 8,6 C 0,1 C 56 % 61 % 0 % 1013,9 hPa 0,0 l/m 2,6 km/h (1 Bft) S 180 0 min 0,2 C 8,6 C 12,6 km/h (3 Bft)
27.02.2017 01:20 8,5 C 5,7 C 7,8 C 8,6 C 8,6 C 0,1 C 56 % 61 % 0 % 1013,9 hPa 0,0 l/m 2,6 km/h (1 Bft) S 180 0 min 0,2 C 8,6 C 1,9 km/h (1 Bft)
27.02.2017 01:25 8,4 C 5,7 C 7,9 C 8,6 C 8,6 C 0,2 C 57 % 62 % 0 % 1013,9 hPa 0,0 l/m 2,6 km/h (1 Bft) N-NW 337 0 min 0,4 C 8,6 C 3,4 km/h (1 Bft)
27.02.2017 01:30 8,5 C 5,7 C 7,9 C 8,6 C 8,6 C 0,1 C 57 % 62 % 0 % 1013,9 hPa 0,0 l/m 3,2 km/h (1 Bft) W 270 0 min 0,5 C 8,6 C 6,6 km/h (2 Bft)
27.02.2017 01:35 8,5 C 5,7 C 7,9 C 8,6 C 8,6 C 0,1 C 57 % 62 % 0 % 1014,2 hPa 0,0 l/m 3,5 km/h (1 Bft) SO 135 0 min 0,5 C 8,6 C 4,0 km/h (1 Bft)
27.02.2017 01:40 8,4 C 5,7 C 7,8 C 8,6 C 8,6 C 0,2 C 57 % 62 % 0 % 1014,2 hPa 0,0 l/m 3,7 km/h (1 Bft) SW 225 0 min 0,4 C 8,6 C 7,2 km/h (2 Bft)
27.02.2017 01:45 8,5 C 5,7 C 7,8 C 8,5 C 8,4 C 0,0 C 56 % 62 % 0 % 1014,2 hPa 0,0 l/m 4,3 km/h (1 Bft) W 270 0 min 0,2 C 8,4 C 13,7 km/h (3 Bft)
27.02.2017 01:50 8,5 C 5,7 C 7,9 C 8,4 C 8,2 C 0,0 C 56 % 62 % 0 % 1014,2 hPa 0,0 l/m 5,0 km/h (1 Bft) W 270 0 min 0,2 C 7,7 C 8,5 km/h (2 Bft)
27.02.2017 01:55 8,4 C 5,7 C 7,9 C 8,3 C 8,2 C 0,0 C 57 % 62 % 0 % 1013,8 hPa 0,0 l/m 4,8 km/h (1 Bft) S 180 0 min 0,4 C 7,8 C 10,0 km/h (2 Bft)
27.02.2017 02:00 8,5 C 5,8 C 7,9 C 8,4 C 8,2 C 0,0 C 57 % 62 % 0 % 1013,8 hPa 0,0 l/m 4,7 km/h (1 Bft) S 180 0 min 0,5 C 7,8 C 7,4 km/h (2 Bft)
27.02.2017 02:05 8,5 C 5,8 C 7,7 C 8,2 C 7,6 C 0,0 C 57 % 62 % 0 % 1013,8 hPa 0,0 l/m 6,0 km/h (2 Bft) S-SO 157 0 min 0,5 C 6,7 C 13,0 km/h (3 Bft)
27.02.2017 02:10 8,4 C 5,8 C 7,6 C 8,0 C 7,3 C 0,0 C 57 % 63 % 0 % 1013,8 hPa 0,0 l/m 6,6 km/h (2 Bft) W-SW 247 0 min 0,4 C 6,2 C 5,1 km/h (1 Bft)
27.02.2017 02:15 8,4 C 5,8 C 7,5 C 8,0 C 7,2 C 0,0 C 57 % 63 % 0 % 1013,6 hPa 0,0 l/m 6,0 km/h (2 Bft) S 180 0 min 0,4 C 6,3 C 6,1 km/h (2 Bft)
27.02.2017 02:20 8,2 C 5,8 C 7,2 C 8,0 C 7,6 C 0,0 C 57 % 63 % 0 % 1013,6 hPa 0,0 l/m 4,0 km/h (1 Bft) SO 135 0 min 0,2 C 7,6 C 2,7 km/h (1 Bft)
27.02.2017 02:25 8,1 C 5,8 C 7,1 C 7,9 C 7,4 C 0,0 C 58 % 64 % 0 % 1013,6 hPa 0,0 l/m 3,1 km/h (1 Bft) W-SW 247 0 min 0,3 C 7,4 C 4,7 km/h (1 Bft)
27.02.2017 02:30 8,0 C 5,8 C 6,9 C 7,7 C 7,2 C 0,0 C 58 % 64 % 0 % 1013,6 hPa 0,0 l/m 3,2 km/h (1 Bft) SW 225 0 min 0,3 C 7,2 C 3,2 km/h (1 Bft)
27.02.2017 02:35 8,0 C 5,8 C 6,9 C 7,7 C 7,0 C 0,0 C 58 % 65 % 0 % 1013,7 hPa 0,0 l/m 3,7 km/h (1 Bft) N-NO 22 0 min 0,3 C 7,0 C 3,5 km/h (1 Bft)
27.02.2017 02:40 7,9 C 5,8 C 6,8 C 7,6 C 7,1 C 0,0 C 59 % 65 % 0 % 1013,7 hPa 0,0 l/m 3,4 km/h (1 Bft) S-SO 157 0 min 0,4 C 7,1 C 5,1 km/h (1 Bft)
27.02.2017 02:45 7,9 C 5,8 C 6,8 C 7,6 C 7,0 C 0,0 C 59 % 65 % 0 % 1013,7 hPa 0,0 l/m 1,9 km/h (1 Bft) SW 225 0 min 0,4 C 7,0 C 3,2 km/h (1 Bft)
27.02.2017 02:50 7,7 C 5,8 C 6,7 C 7,5 C 7,0 C 0,0 C 59 % 66 % 0 % 1013,7 hPa 0,0 l/m 1,8 km/h (1 Bft) W 270 0 min 0,2 C 7,0 C 2,4 km/h (1 Bft)
27.02.2017 02:55 7,7 C 5,8 C 6,8 C 7,5 C 7,1 C 0,0 C 60 % 66 % 0 % 1013,5 hPa 0,0 l/m 1,8 km/h (1 Bft) W-SW 247 0 min 0,4 C 7,1 C 1,6 km/h (1 Bft)
27.02.2017 03:00 7,7 C 5,8 C 6,9 C 7,5 C 7,2 C 0,0 C 60 % 66 % 0 % 1013,5 hPa 0,0 l/m 1,1 km/h (1 Bft) NO 45 0 min 0,4 C 7,2 C 0,0 km/h (0 Bft)
27.02.2017 03:05 7,6 C 5,8 C 6,9 C 7,5 C 7,4 C 0,0 C 60 % 66 % 0 % 1013,5 hPa 0,0 l/m 1,4 km/h (1 Bft) S 180 0 min 0,3 C 7,4 C 4,0 km/h (1 Bft)
27.02.2017 03:10 7,6 C 5,8 C 6,9 C 7,5 C 7,4 C 0,0 C 60 % 66 % 0 % 1013,5 hPa 0,0 l/m 1,4 km/h (1 Bft) S-SO 157 0 min 0,3 C 7,4 C 0,0 km/h (0 Bft)
27.02.2017 03:15 7,6 C 5,8 C 6,9 C 7,6 C 7,6 C 0,0 C 61 % 67 % 0 % 1013,6 hPa 0,0 l/m 1,8 km/h (1 Bft) S-SO 157 0 min 0,6 C 7,6 C 3,4 km/h (1 Bft)
27.02.2017 03:20 7,7 C 5,8 C 6,9 C 7,7 C 7,6 C 0,0 C 61 % 67 % 0 % 1013,6 hPa 0,0 l/m 1,8 km/h (1 Bft) S-SO 157 0 min 0,7 C 7,6 C 6,3 km/h (2 Bft)
27.02.2017 03:25 7,9 C 5,8 C 7,0 C 7,8 C 7,7 C 0,0 C 61 % 67 % 0 % 1013,6 hPa 0,0 l/m 2,1 km/h (1 Bft) S 180 0 min 0,9 C 7,7 C 1,9 km/h (1 Bft)
27.02.2017 03:30 7,9 C 5,8 C 6,9 C 7,8 C 7,7 C 0,0 C 61 % 67 % 0 % 1013,6 hPa 0,0 l/m 1,9 km/h (1 Bft) S-SO 157 0 min 0,9 C 7,7 C 6,4 km/h (2 Bft)
27.02.2017 03:35 7,9 C 5,8 C 7,0 C 7,9 C 7,8 C 0,0 C 61 % 67 % 0 % 1013,5 hPa 0,0 l/m 1,4 km/h (1 Bft) S 180 0 min 0,9 C 7,8 C 3,7 km/h (1 Bft)
27.02.2017 03:40 7,9 C 5,8 C 7,1 C 7,9 C 7,8 C 0,0 C 61 % 67 % 0 % 1013,5 hPa 0,0 l/m 1,6 km/h (1 Bft) SW 225 0 min 0,9 C 7,8 C 2,7 km/h (1 Bft)
27.02.2017 03:45 7,8 C 5,8 C 7,1 C 7,9 C 7,9 C 0,1 C 61 % 67 % 0 % 1013,5 hPa 0,0 l/m 2,7 km/h (1 Bft) S 180 0 min 0,8 C 7,9 C 7,4 km/h (2 Bft)
27.02.2017 03:50 7,9 C 5,8 C 7,1 C 7,9 C 7,8 C 0,0 C 61 % 67 % 0 % 1013,5 hPa 0,0 l/m 3,7 km/h (1 Bft) SO 135 0 min 0,9 C 7,8 C 3,5 km/h (1 Bft)
27.02.2017 03:55 8,0 C 5,8 C 7,1 C 7,9 C 7,6 C 0,0 C 61 % 67 % 0 % 1012,8 hPa 0,0 l/m 4,7 km/h (1 Bft) SW 225 0 min 0,9 C 7,1 C 5,3 km/h (1 Bft)
27.02.2017 04:00 8,0 C 5,8 C 7,1 C 8,0 C 7,9 C 0,0 C 61 % 67 % 0 % 1012,8 hPa 0,0 l/m 4,2 km/h (1 Bft) W 270 0 min 0,9 C 7,9 C 5,0 km/h (1 Bft)
27.02.2017 04:05 8,0 C 5,8 C 7,2 C 8,0 C 7,9 C 0,0 C 61 % 68 % 0 % 1012,8 hPa 0,0 l/m 3,9 km/h (1 Bft) W-SW 247 0 min 0,9 C 7,9 C 2,9 km/h (1 Bft)
27.02.2017 04:10 8,0 C 5,8 C 7,2 C 8,0 C 7,9 C 0,0 C 62 % 68 % 0 % 1012,8 hPa 0,0 l/m 3,5 km/h (1 Bft) O 90 0 min 1,2 C 7,9 C 2,1 km/h (1 Bft)
27.02.2017 04:15 8,0 C 5,8 C 7,1 C 8,0 C 7,9 C 0,0 C 62 % 68 % 0 % 1013,3 hPa 0,0 l/m 3,5 km/h (1 Bft) S 180 0 min 1,2 C 7,9 C 6,1 km/h (2 Bft)
27.02.2017 04:20 8,0 C 5,8 C 7,1 C 7,9 C 7,7 C 0,0 C 62 % 68 % 0 % 1013,3 hPa 0,0 l/m 4,0 km/h (1 Bft) S 180 0 min 1,2 C 7,7 C 3,2 km/h (1 Bft)
27.02.2017 04:25 8,1 C 5,8 C 7,1 C 8,0 C 7,9 C 0,0 C 62 % 68 % 0 % 1013,3 hPa 0,0 l/m 3,1 km/h (1 Bft) S-SW 202 0 min 1,3 C 7,9 C 1,8 km/h (1 Bft)
27.02.2017 04:30 8,1 C 5,8 C 7,0 C 8,0 C 7,9 C 0,0 C 62 % 68 % 0 % 1013,3 hPa 0,0 l/m 2,3 km/h (1 Bft) SW 225 0 min 1,3 C 7,9 C 1,9 km/h (1 Bft)
27.02.2017 04:35 8,0 C 5,8 C 7,1 C 8,0 C 7,9 C 0,0 C 62 % 69 % 0 % 1013,2 hPa 0,0 l/m 2,1 km/h (1 Bft) S 180 0 min 1,2 C 7,9 C 5,0 km/h (1 Bft)
27.02.2017 04:40 8,0 C 5,8 C 7,1 C 8,0 C 7,9 C 0,0 C 62 % 69 % 0 % 1013,2 hPa 0,0 l/m 1,9 km/h (1 Bft) S 180 0 min 1,2 C 7,9 C 0,0 km/h (0 Bft)
27.02.2017 04:45 8,0 C 5,8 C 7,1 C 8,0 C 7,9 C 0,0 C 62 % 69 % 0 % 1013,2 hPa 0,0 l/m 1,4 km/h (1 Bft) W-SW 247 0 min 1,2 C 7,9 C 0,0 km/h (0 Bft)
27.02.2017 04:50 8,0 C 5,8 C 7,1 C 8,0 C 7,9 C 0,0 C 63 % 69 % 0 % 1013,2 hPa 0,0 l/m 1,3 km/h (1 Bft) NW 315 0 min 1,4 C 7,9 C 0,0 km/h (0 Bft)
27.02.2017 04:55 7,9 C 5,8 C 7,1 C 7,9 C 7,8 C 0,0 C 63 % 70 % 0 % 1012,9 hPa 0,0 l/m 1,8 km/h (1 Bft) W 270 0 min 1,3 C 7,8 C 3,4 km/h (1 Bft)
27.02.2017 05:00 7,9 C 5,8 C 7,1 C 7,9 C 7,8 C 0,0 C 64 % 70 % 0 % 1012,9 hPa 0,0 l/m 2,4 km/h (1 Bft) W 270 0 min 1,5 C 7,8 C 5,0 km/h (1 Bft)
27.02.2017 05:05 7,9 C 5,8 C 7,2 C 7,9 C 7,9 C 0,0 C 64 % 70 % 0 % 1012,9 hPa 0,0 l/m 2,9 km/h (1 Bft) N-NO 22 0 min 1,5 C 7,9 C 1,9 km/h (1 Bft)
27.02.2017 05:10 8,0 C 5,8 C 7,2 C 8,0 C 7,9 C 0,0 C 64 % 70 % 0 % 1012,9 hPa 0,0 l/m 2,9 km/h (1 Bft) S-SO 157 0 min 1,6 C 7,9 C 3,7 km/h (1 Bft)
27.02.2017 05:15 8,0 C 5,8 C 7,3 C 8,1 C 8,1 C 0,1 C 64 % 70 % 0 % 1012,8 hPa 0,0 l/m 3,4 km/h (1 Bft) W-SW 247 0 min 1,6 C 8,1 C 6,1 km/h (2 Bft)
27.02.2017 05:20 8,1 C 5,8 C 7,4 C 8,2 C 8,2 C 0,1 C 64 % 70 % 0 % 1012,8 hPa 0,0 l/m 3,4 km/h (1 Bft) S 180 0 min 1,7 C 8,2 C 2,7 km/h (1 Bft)
27.02.2017 05:25 8,1 C 5,8 C 7,5 C 8,2 C 8,2 C 0,1 C 64 % 69 % 0 % 1012,8 hPa 0,0 l/m 2,4 km/h (1 Bft) S-SO 157 0 min 1,7 C 8,2 C 3,2 km/h (1 Bft)
27.02.2017 05:30 8,1 C 5,8 C 7,5 C 8,2 C 8,2 C 0,1 C 64 % 70 % 0 % 1012,8 hPa 0,0 l/m 2,6 km/h (1 Bft) S 180 0 min 1,7 C 8,2 C 6,1 km/h (2 Bft)
27.02.2017 05:35 8,2 C 5,8 C 7,4 C 8,2 C 8,2 C 0,0 C 64 % 70 % 0 % 1012,6 hPa 0,0 l/m 3,1 km/h (1 Bft) W-SW 247 0 min 1,8 C 8,2 C 2,9 km/h (1 Bft)
27.02.2017 05:40 8,1 C 5,8 C 7,5 C 8,2 C 8,2 C 0,1 C 65 % 70 % 0 % 1012,6 hPa 0,0 l/m 2,9 km/h (1 Bft) W-NW 292 0 min 1,9 C 8,2 C 3,1 km/h (1 Bft)
27.02.2017 05:45 8,0 C 5,8 C 7,5 C 8,1 C 8,1 C 0,1 C 65 % 70 % 0 % 1012,6 hPa 0,0 l/m 2,4 km/h (1 Bft) S-SW 202 0 min 1,8 C 8,1 C 5,0 km/h (1 Bft)
27.02.2017 05:50 8,0 C 5,8 C 7,3 C 8,0 C 8,0 C 0,0 C 65 % 71 % 0 % 1012,6 hPa 0,0 l/m 2,4 km/h (1 Bft) W 270 0 min 1,8 C 8,0 C 3,5 km/h (1 Bft)
27.02.2017 05:55 8,0 C 5,8 C 7,2 C 8,0 C 7,9 C 0,0 C 66 % 71 % 0 % 1012,4 hPa 0,0 l/m 2,9 km/h (1 Bft) SW 225 0 min 2,0 C 7,9 C 0,0 km/h (0 Bft)
27.02.2017 06:00 8,0 C 5,8 C 7,2 C 8,0 C 7,9 C 0,0 C 66 % 71 % 0 % 1012,4 hPa 0,0 l/m 2,9 km/h (1 Bft) W-SW 247 0 min 2,0 C 7,9 C 6,1 km/h (2 Bft)
27.02.2017 06:05 8,0 C 5,8 C 7,2 C 8,0 C 7,9 C 0,0 C 66 % 71 % 0 % 1012,4 hPa 0,0 l/m 2,4 km/h (1 Bft) O-SO 112 0 min 2,0 C 7,9 C 1,8 km/h (1 Bft)
27.02.2017 06:10 8,0 C 5,8 C 7,2 C 8,0 C 7,9 C 0,0 C 66 % 71 % 0 % 1012,4 hPa 0,0 l/m 2,7 km/h (1 Bft) W-NW 292 0 min 2,0 C 7,9 C 0,0 km/h (0 Bft)
27.02.2017 06:15 7,9 C 5,8 C 7,2 C 7,9 C 7,9 C 0,0 C 66 % 71 % 0 % 1012,1 hPa 0,0 l/m 1,4 km/h (1 Bft) N-NO 22 0 min 1,9 C 7,9 C 1,6 km/h (1 Bft)
27.02.2017 06:20 7,9 C 5,8 C 7,2 C 7,9 C 7,9 C 0,0 C 66 % 72 % 0 % 1012,1 hPa 0,0 l/m 1,4 km/h (1 Bft) SO 135 0 min 1,9 C 7,9 C 6,6 km/h (2 Bft)
27.02.2017 06:25 8,0 C 5,8 C 7,3 C 8,0 C 8,0 C 0,0 C 66 % 72 % 0 % 1012,1 hPa 0,0 l/m 2,9 km/h (1 Bft) SO 135 0 min 2,0 C 8,0 C 2,6 km/h (1 Bft)
27.02.2017 06:30 8,0 C 5,8 C 7,5 C 8,1 C 8,1 C 0,1 C 66 % 71 % 0 % 1012,1 hPa 0,0 l/m 3,2 km/h (1 Bft) W 270 0 min 2,0 C 8,1 C 4,5 km/h (1 Bft)
27.02.2017 06:35 8,1 C 5,8 C 7,5 C 8,1 C 8,1 C 0,0 C 66 % 72 % 0 % 1012,1 hPa 0,0 l/m 3,9 km/h (1 Bft) S 180 0 min 2,1 C 8,1 C 7,9 km/h (2 Bft)
27.02.2017 06:40 8,1 C 5,8 C 7,4 C 8,0 C 7,9 C 0,0 C 66 % 72 % 0 % 1012,1 hPa 0,0 l/m 4,3 km/h (1 Bft) S-SO 157 0 min 2,1 C 7,9 C 4,0 km/h (1 Bft)
27.02.2017 06:45 8,3 C 5,8 C 7,5 C 8,1 C 7,7 C 0,0 C 67 % 72 % 0 % 1012,1 hPa 0,0 l/m 5,1 km/h (1 Bft) W-SW 247 0 min 2,5 C 7,1 C 3,4 km/h (1 Bft)
27.02.2017 06:50 8,2 C 5,8 C 7,5 C 8,1 C 7,8 C 0,0 C 66 % 72 % 0 % 1012,1 hPa 0,0 l/m 4,8 km/h (1 Bft) W-SW 247 0 min 2,2 C 7,3 C 6,1 km/h (2 Bft)
27.02.2017 06:55 8,3 C 5,8 C 7,5 C 8,2 C 7,9 C 0,0 C 67 % 72 % 0 % 1012,0 hPa 0,0 l/m 5,1 km/h (1 Bft) S 180 0 min 2,5 C 7,3 C 8,2 km/h (2 Bft)
27.02.2017 07:00 8,3 C 5,8 C 7,5 C 8,1 C 7,7 C 0,0 C 67 % 72 % 0 % 1012,0 hPa 0,0 l/m 5,6 km/h (1 Bft) S-SW 202 0 min 2,5 C 6,9 C 6,6 km/h (2 Bft)
27.02.2017 07:05 8,3 C 5,8 C 7,5 C 8,2 C 8,0 C 0,0 C 67 % 73 % 0 % 1012,0 hPa 0,0 l/m 4,8 km/h (1 Bft) S 180 0 min 2,5 C 7,6 C 6,3 km/h (2 Bft)
27.02.2017 07:10 8,4 C 5,8 C 7,5 C 8,4 C 8,3 C 0,0 C 67 % 73 % 0 % 1012,0 hPa 0,0 l/m 4,0 km/h (1 Bft) N-NW 337 0 min 2,6 C 8,3 C 2,1 km/h (1 Bft)
27.02.2017 07:15 8,3 C 5,8 C 7,5 C 8,3 C 8,2 C 0,0 C 67 % 73 % 0 % 1012,0 hPa 0,0 l/m 4,2 km/h (1 Bft) N 360 0 min 2,5 C 8,2 C 5,8 km/h (2 Bft)
27.02.2017 07:20 8,4 C 5,8 C 7,6 C 8,3 C 8,2 C 0,0 C 67 % 73 % 0 % 1012,0 hPa 0,0 l/m 4,7 km/h (1 Bft) S 180 0 min 2,6 C 7,8 C 6,1 km/h (2 Bft)
27.02.2017 07:25 8,4 C 5,8 C 7,6 C 8,2 C 7,9 C 0,0 C 67 % 73 % 0 % 1012,0 hPa 0,0 l/m 5,8 km/h (2 Bft) S-SW 202 0 min 2,6 C 7,1 C 4,7 km/h (1 Bft)
27.02.2017 07:30 8,4 C 5,8 C 7,6 C 8,2 C 7,9 C 0,0 C 67 % 73 % 0 % 1012,0 hPa 0,0 l/m 5,6 km/h (1 Bft) S 180 0 min 2,6 C 7,2 C 8,0 km/h (2 Bft)
27.02.2017 07:35 8,4 C 5,8 C 7,6 C 8,4 C 8,3 C 0,0 C 67 % 73 % 0 % 1011,9 hPa 0,0 l/m 4,7 km/h (1 Bft) S 180 0 min 2,6 C 7,9 C 6,1 km/h (2 Bft)
27.02.2017 07:40 8,5 C 5,8 C 7,6 C 8,4 C 8,2 C 0,0 C 67 % 73 % 0 % 1011,9 hPa 0,0 l/m 4,8 km/h (1 Bft) SW 225 0 min 2,7 C 7,8 C 7,2 km/h (2 Bft)
27.02.2017 07:45 8,5 C 5,8 C 7,7 C 8,4 C 8,3 C 0,0 C 67 % 73 % 0 % 1011,9 hPa 0,0 l/m 4,8 km/h (1 Bft) SO 135 0 min 2,7 C 7,9 C 4,5 km/h (1 Bft)
27.02.2017 07:50 8,5 C 5,8 C 7,7 C 8,5 C 8,4 C 0,0 C 67 % 73 % 0 % 1011,9 hPa 0,0 l/m 4,7 km/h (1 Bft) S-SO 157 0 min 2,7 C 8,0 C 8,2 km/h (2 Bft)
27.02.2017 07:55 8,5 C 5,8 C 7,8 C 8,5 C 8,5 C 0,0 C 67 % 73 % 0 % 1011,9 hPa 0,0 l/m 4,5 km/h (1 Bft) S-SW 202 0 min 2,7 C 8,5 C 5,3 km/h (1 Bft)
27.02.2017 08:00 8,5 C 5,8 C 7,9 C 8,7 C 8,7 C 0,2 C 68 % 74 % 5 % 1011,9 hPa 0,0 l/m 4,2 km/h (1 Bft) SW 225 0 min 2,9 C 8,7 C 7,2 km/h (2 Bft)
27.02.2017 08:05 8,6 C 5,7 C 7,9 C 8,6 C 8,6 C 0,0 C 67 % 73 % 0 % 1011,9 hPa 0,0 l/m 4,8 km/h (1 Bft) S 180 0 min 2,8 C 8,2 C 9,0 km/h (2 Bft)
27.02.2017 08:10 8,7 C 5,7 C 8,0 C 8,6 C 8,4 C 0,0 C 67 % 73 % 0 % 1011,9 hPa 0,0 l/m 5,8 km/h (2 Bft) SW 225 0 min 2,9 C 7,7 C 7,9 km/h (2 Bft)
27.02.2017 08:15 8,7 C 5,7 C 8,1 C 8,6 C 8,4 C 0,0 C 67 % 73 % 0 % 1011,7 hPa 0,0 l/m 6,1 km/h (2 Bft) S-SW 202 0 min 2,9 C 7,6 C 8,4 km/h (2 Bft)
27.02.2017 08:20 8,7 C 5,7 C 8,1 C 8,7 C 8,7 C 0,0 C 67 % 73 % 0 % 1011,7 hPa 0,0 l/m 5,6 km/h (1 Bft) SO 135 0 min 2,9 C 8,1 C 3,2 km/h (1 Bft)
27.02.2017 08:25 8,7 C 5,7 C 8,3 C 9,1 C 9,1 C 0,4 C 68 % 73 % 11 % 1011,7 hPa 0,0 l/m 4,3 km/h (1 Bft) S 180 0 min 3,1 C 9,1 C 4,3 km/h (1 Bft)
27.02.2017 08:30 8,7 C 5,7 C 8,3 C 9,2 C 9,2 C 0,5 C 68 % 73 % 13 % 1011,7 hPa 0,0 l/m 4,2 km/h (1 Bft) S 180 0 min 3,1 C 9,2 C 2,6 km/h (1 Bft)
27.02.2017 08:35 8,9 C 5,7 C 8,3 C 9,1 C 9,1 C 0,2 C 67 % 73 % 5 % 1011,4 hPa 0,0 l/m 5,3 km/h (1 Bft) S 180 0 min 3,1 C 8,6 C 7,1 km/h (2 Bft)
27.02.2017 08:40 8,8 C 5,7 C 8,4 C 9,1 C 9,1 C 0,3 C 67 % 72 % 8 % 1011,4 hPa 0,0 l/m 5,6 km/h (1 Bft) S 180 0 min 3,0 C 8,6 C 4,8 km/h (1 Bft)
27.02.2017 08:45 8,9 C 5,8 C 8,5 C 9,5 C 9,5 C 0,6 C 67 % 73 % 16 % 1011,4 hPa 0,0 l/m 4,8 km/h (1 Bft) S 180 0 min 3,1 C 9,3 C 6,4 km/h (2 Bft)
27.02.2017 08:50 9,0 C 5,8 C 8,7 C 9,9 C 9,9 C 0,9 C 67 % 73 % 24 % 1011,4 hPa 0,0 l/m 4,0 km/h (1 Bft) S 180 0 min 3,2 C 9,9 C 7,6 km/h (2 Bft)
27.02.2017 08:55 9,0 C 5,8 C 8,8 C 10,0 C 10,0 C 1,0 C 67 % 72 % 26 % 1011,2 hPa 0,0 l/m 4,2 km/h (1 Bft) S 180 0 min 3,2 C 10,0 C 8,0 km/h (2 Bft)
27.02.2017 09:00 9,1 C 5,8 C 8,9 C 10,1 C 10,1 C 1,0 C 67 % 72 % 26 % 1011,2 hPa 0,0 l/m 4,0 km/h (1 Bft) S 180 0 min 3,3 C 10,1 C 5,5 km/h (1 Bft)
27.02.2017 09:05 9,3 C 5,8 C 8,9 C 10,2 C 10,2 C 0,9 C 67 % 72 % 24 % 1011,2 hPa 0,0 l/m 3,9 km/h (1 Bft) S-SO 157 0 min 3,5 C 10,2 C 2,9 km/h (1 Bft)
27.02.2017 09:10 9,2 C 5,8 C 9,1 C 10,3 C 10,3 C 1,1 C 66 % 71 % 29 % 1011,2 hPa 0,0 l/m 4,0 km/h (1 Bft) O-SO 112 0 min 3,2 C 10,3 C 6,8 km/h (2 Bft)
27.02.2017 09:15 9,3 C 5,8 C 9,1 C 10,2 C 10,2 C 0,9 C 66 % 71 % 24 % 1011,1 hPa 0,0 l/m 4,7 km/h (1 Bft) SW 225 0 min 3,3 C 10,2 C 8,5 km/h (2 Bft)
27.02.2017 09:20 9,4 C 5,8 C 9,1 C 10,3 C 10,3 C 0,9 C 66 % 71 % 24 % 1011,1 hPa 0,0 l/m 4,5 km/h (1 Bft) SW 225 0 min 3,4 C 10,3 C 7,9 km/h (2 Bft)
27.02.2017 09:25 9,5 C 5,8 C 9,3 C 10,5 C 10,5 C 1,0 C 66 % 71 % 26 % 1011,1 hPa 0,0 l/m 4,3 km/h (1 Bft) S-SO 157 0 min 3,5 C 10,5 C 5,1 km/h (1 Bft)
27.02.2017 09:30 9,5 C 5,8 C 9,2 C 10,6 C 10,6 C 1,1 C 66 % 71 % 29 % 1011,1 hPa 0,0 l/m 4,2 km/h (1 Bft) S 180 0 min 3,5 C 10,6 C 5,1 km/h (1 Bft)
27.02.2017 09:35 9,5 C 5,8 C 9,3 C 10,6 C 10,6 C 1,1 C 66 % 70 % 29 % 1011,0 hPa 0,0 l/m 4,0 km/h (1 Bft) S-SO 157 0 min 3,5 C 10,6 C 2,4 km/h (1 Bft)
27.02.2017 09:40 9,6 C 5,8 C 9,5 C 10,7 C 10,7 C 1,1 C 66 % 70 % 29 % 1011,0 hPa 0,0 l/m 3,4 km/h (1 Bft) S-SO 157 0 min 3,6 C 10,7 C 3,4 km/h (1 Bft)
27.02.2017 09:45 9,6 C 5,8 C 9,5 C 10,8 C 10,8 C 1,2 C 66 % 70 % 32 % 1011,0 hPa 0,0 l/m 2,9 km/h (1 Bft) S-SW 202 0 min 3,6 C 10,8 C 4,8 km/h (1 Bft)
27.02.2017 09:50 9,7 C 5,8 C 9,6 C 10,9 C 10,9 C 1,2 C 65 % 70 % 32 % 1011,0 hPa 0,0 l/m 3,7 km/h (1 Bft) W-SW 247 0 min 3,4 C 10,9 C 3,4 km/h (1 Bft)
27.02.2017 09:55 9,7 C 5,8 C 9,7 C 11,0 C 11,0 C 1,3 C 66 % 70 % 34 % 1010,6 hPa 0,0 l/m 3,2 km/h (1 Bft) S 180 0 min 3,7 C 11,0 C 8,9 km/h (2 Bft)
27.02.2017 10:00 9,9 C 5,8 C 9,7 C 11,1 C 11,1 C 1,2 C 65 % 69 % 32 % 1010,6 hPa 0,0 l/m 3,1 km/h (1 Bft) S 180 0 min 3,6 C 11,1 C 4,3 km/h (1 Bft)
27.02.2017 10:05 9,9 C 5,9 C 9,9 C 11,2 C 11,2 C 1,3 C 65 % 69 % 34 % 1010,6 hPa 0,0 l/m 3,2 km/h (1 Bft) SO 135 0 min 3,6 C 11,2 C 3,5 km/h (1 Bft)
27.02.2017 10:10 9,9 C 5,9 C 9,8 C 11,2 C 11,2 C 1,3 C 65 % 69 % 34 % 1010,6 hPa 0,0 l/m 3,5 km/h (1 Bft) SW 225 0 min 3,6 C 11,2 C 2,3 km/h (1 Bft)
27.02.2017 10:15 9,9 C 5,9 C 10,0 C 11,3 C 11,3 C 1,4 C 65 % 69 % 37 % 1010,6 hPa 0,0 l/m 3,7 km/h (1 Bft) W 270 0 min 3,6 C 11,3 C 4,7 km/h (1 Bft)
27.02.2017 10:20 10,1 C 5,9 C 10,0 C 11,4 C 11,4 C 1,3 C 65 % 69 % 34 % 1010,6 hPa 0,0 l/m 3,7 km/h (1 Bft) SO 135 0 min 3,8 C 11,4 C 5,5 km/h (1 Bft)
27.02.2017 10:25 10,0 C 5,9 C 10,1 C 11,5 C 11,5 C 1,5 C 65 % 69 % 39 % 1010,6 hPa 0,0 l/m 3,5 km/h (1 Bft) W-SW 247 0 min 3,7 C 11,5 C 5,5 km/h (1 Bft)
27.02.2017 10:30 10,1 C 5,9 C 10,3 C 11,6 C 11,6 C 1,5 C 65 % 68 % 39 % 1010,6 hPa 0,0 l/m 3,7 km/h (1 Bft) S-SW 202 0 min 3,8 C 11,6 C 5,5 km/h (1 Bft)
27.02.2017 10:35 10,1 C 5,9 C 10,3 C 11,6 C 11,6 C 1,5 C 65 % 68 % 39 % 1010,6 hPa 0,0 l/m 4,3 km/h (1 Bft) S-SW 202 0 min 3,8 C 11,6 C 6,4 km/h (2 Bft)
27.02.2017 10:40 10,2 C 5,9 C 10,3 C 11,6 C 11,6 C 1,4 C 65 % 68 % 37 % 1010,6 hPa 0,0 l/m 4,3 km/h (1 Bft) W-NW 292 0 min 3,9 C 11,6 C 7,9 km/h (2 Bft)
27.02.2017 10:45 10,3 C 5,9 C 10,5 C 11,8 C 11,8 C 1,5 C 65 % 68 % 39 % 1010,6 hPa 0,0 l/m 4,0 km/h (1 Bft) W-SW 247 0 min 4,0 C 11,8 C 8,7 km/h (2 Bft)
27.02.2017 10:50 10,3 C 5,9 C 10,5 C 12,0 C 12,0 C 1,7 C 65 % 68 % 45 % 1010,6 hPa 0,0 l/m 3,5 km/h (1 Bft) SO 135 0 min 4,0 C 12,0 C 6,4 km/h (2 Bft)
27.02.2017 10:55 10,3 C 5,9 C 10,7 C 11,8 C 11,8 C 1,5 C 65 % 67 % 39 % 1010,6 hPa 0,0 l/m 6,0 km/h (2 Bft) W-SW 247 0 min 4,0 C 11,8 C 16,6 km/h (3 Bft)
27.02.2017 11:00 10,4 C 5,9 C 10,7 C 11,6 C 11,6 C 1,2 C 65 % 67 % 32 % 1010,6 hPa 0,0 l/m 6,8 km/h (2 Bft) W-SW 247 0 min 4,1 C 11,6 C 6,3 km/h (2 Bft)
27.02.2017 11:05 10,5 C 6,0 C 10,8 C 11,8 C 11,8 C 1,3 C 65 % 67 % 34 % 1010,6 hPa 0,0 l/m 6,8 km/h (2 Bft) W-SW 247 0 min 4,2 C 11,8 C 11,4 km/h (2 Bft)
27.02.2017 11:10 10,5 C 6,0 C 11,1 C 12,1 C 12,1 C 1,6 C 65 % 67 % 42 % 1010,6 hPa 0,0 l/m 6,4 km/h (2 Bft) W-SW 247 0 min 4,2 C 12,1 C 10,9 km/h (2 Bft)
27.02.2017 11:15 10,6 C 6,0 C 11,0 C 12,1 C 12,1 C 1,5 C 65 % 66 % 39 % 1009,7 hPa 0,0 l/m 6,9 km/h (2 Bft) S-SO 157 0 min 4,3 C 12,1 C 6,9 km/h (2 Bft)
27.02.2017 11:20 10,6 C 6,0 C 11,3 C 12,4 C 12,4 C 1,8 C 65 % 66 % 47 % 1009,7 hPa 0,0 l/m 6,6 km/h (2 Bft) SW 225 0 min 4,3 C 12,4 C 7,9 km/h (2 Bft)
27.02.2017 11:25 10,8 C 6,0 C 11,2 C 12,4 C 12,4 C 1,6 C 65 % 66 % 42 % 1009,7 hPa 0,0 l/m 6,9 km/h (2 Bft) SO 135 0 min 4,5 C 12,4 C 8,9 km/h (2 Bft)
27.02.2017 11:30 10,8 C 6,0 C 11,3 C 12,6 C 12,5 C 1,8 C 65 % 66 % 47 % 1009,7 hPa 0,0 l/m 7,9 km/h (2 Bft) W-SW 247 0 min 4,5 C 12,5 C 5,8 km/h (2 Bft)
27.02.2017 11:35 11,1 C 6,0 C 11,5 C 13,2 C 13,2 C 2,1 C 64 % 66 % 55 % 1009,5 hPa 0,0 l/m 6,0 km/h (2 Bft) W-SW 247 0 min 4,6 C 13,2 C 3,4 km/h (1 Bft)
27.02.2017 11:40 11,2 C 6,1 C 11,4 C 13,7 C 13,7 C 2,5 C 63 % 65 % 66 % 1009,5 hPa 0,0 l/m 5,5 km/h (1 Bft) S 180 0 min 4,4 C 13,7 C 9,7 km/h (2 Bft)
27.02.2017 11:45 11,5 C 6,1 C 11,6 C 15,1 C 15,1 C 3,6 C 63 % 64 % 95 % 1009,5 hPa 0,0 l/m 6,0 km/h (2 Bft) S-SW 202 5 min 4,7 C 15,1 C 13,4 km/h (3 Bft)
27.02.2017 11:50 11,5 C 6,1 C 11,4 C 15,1 C 15,1 C 3,6 C 61 % 64 % 95 % 1009,5 hPa 0,0 l/m 6,6 km/h (2 Bft) W-SW 247 5 min 4,2 C 15,1 C 6,0 km/h (2 Bft)
27.02.2017 11:55 11,6 C 6,1 C 11,5 C 15,6 C 15,6 C 4,0 C 62 % 64 % 100 % 1008,9 hPa 0,0 l/m 7,9 km/h (2 Bft) W-SW 247 5 min 4,6 C 15,6 C 19,8 km/h (3 Bft)
27.02.2017 12:00 11,7 C 6,1 C 11,5 C 16,0 C 16,0 C 4,3 C 61 % 64 % 100 % 1008,9 hPa 0,0 l/m 7,7 km/h (2 Bft) S 180 5 min 4,4 C 16,0 C 6,1 km/h (2 Bft)
27.02.2017 12:05 11,9 C 6,2 C 11,4 C 16,6 C 16,6 C 4,7 C 60 % 64 % 100 % 1008,9 hPa 0,0 l/m 8,0 km/h (2 Bft) W-SW 247 5 min 4,4 C 16,6 C 23,2 km/h (4 Bft)
27.02.2017 12:10 11,9 C 6,2 C 11,4 C 16,5 C 16,5 C 4,6 C 61 % 64 % 100 % 1008,9 hPa 0,0 l/m 8,0 km/h (2 Bft) W-SW 247 5 min 4,6 C 16,5 C 10,1 km/h (2 Bft)
27.02.2017 12:15 11,9 C 6,2 C 11,3 C 16,3 C 16,1 C 4,4 C 61 % 64 % 100 % 1008,3 hPa 0,0 l/m 9,3 km/h (2 Bft) W-SW 247 5 min 4,6 C 16,1 C 9,8 km/h (2 Bft)
27.02.2017 12:20 11,9 C 6,2 C 11,3 C 16,2 C 16,2 C 4,3 C 60 % 64 % 100 % 1008,3 hPa 0,0 l/m 9,3 km/h (2 Bft) S 180 5 min 4,4 C 16,2 C 13,5 km/h (3 Bft)
27.02.2017 12:25 12,1 C 6,2 C 11,5 C 16,5 C 16,5 C 4,4 C 60 % 64 % 100 % 1008,3 hPa 0,0 l/m 8,4 km/h (2 Bft) S 180 5 min 4,6 C 16,5 C 6,4 km/h (2 Bft)
27.02.2017 12:30 12,0 C 6,2 C 11,4 C 16,5 C 16,5 C 4,5 C 60 % 64 % 100 % 1008,3 hPa 0,0 l/m 8,9 km/h (2 Bft) S 180 5 min 4,5 C 16,5 C 13,7 km/h (3 Bft)
27.02.2017 12:35 12,1 C 6,3 C 11,5 C 16,4 C 16,3 C 4,3 C 60 % 64 % 100 % 1008,2 hPa 0,0 l/m 9,5 km/h (2 Bft) SW 225 5 min 4,6 C 16,3 C 10,8 km/h (2 Bft)
27.02.2017 12:40 12,1 C 6,3 C 11,4 C 16,4 C 16,4 C 4,3 C 60 % 65 % 100 % 1008,2 hPa 0,0 l/m 10,0 km/h (2 Bft) S-SO 157 5 min 4,6 C 16,4 C 14,2 km/h (3 Bft)
27.02.2017 12:45 12,2 C 6,3 C 11,6 C 16,4 C 16,4 C 4,2 C 60 % 65 % 100 % 1008,2 hPa 0,0 l/m 10,1 km/h (2 Bft) SO 135 5 min 4,7 C 16,4 C 9,8 km/h (2 Bft)
27.02.2017 12:50 12,3 C 6,3 C 11,6 C 16,4 C 16,3 C 4,1 C 60 % 65 % 100 % 1008,2 hPa 0,0 l/m 10,5 km/h (2 Bft) S 180 5 min 4,8 C 16,3 C 6,9 km/h (2 Bft)
27.02.2017 12:55 12,5 C 6,4 C 11,6 C 16,7 C 16,7 C 4,2 C 60 % 65 % 100 % 1007,6 hPa 0,0 l/m 8,5 km/h (2 Bft) W-SW 247 5 min 5,0 C 16,7 C 9,8 km/h (2 Bft)
27.02.2017 13:00 12,6 C 6,4 C 11,7 C 16,9 C 16,9 C 4,3 C 60 % 65 % 100 % 1007,6 hPa 0,0 l/m 7,9 km/h (2 Bft) W-SW 247 5 min 5,0 C 16,9 C 14,0 km/h (3 Bft)
27.02.2017 13:05 12,5 C 6,4 C 11,7 C 16,6 C 16,4 C 4,1 C 59 % 64 % 100 % 1007,6 hPa 0,0 l/m 9,3 km/h (2 Bft) S 180 5 min 4,7 C 16,4 C 14,6 km/h (3 Bft)
27.02.2017 13:10 12,5 C 6,4 C 11,9 C 16,4 C 16,4 C 3,9 C 60 % 65 % 100 % 1007,6 hPa 0,0 l/m 9,5 km/h (2 Bft) O-NO 67 5 min 5,0 C 16,4 C 6,4 km/h (2 Bft)
27.02.2017 13:15 12,7 C 6,4 C 11,8 C 16,9 C 16,9 C 4,2 C 59 % 64 % 100 % 1007,2 hPa 0,0 l/m 7,1 km/h (2 Bft) W-SW 247 5 min 4,9 C 16,9 C 18,7 km/h (3 Bft)
27.02.2017 13:20 12,7 C 6,5 C 11,9 C 16,9 C 16,9 C 4,2 C 59 % 64 % 100 % 1007,2 hPa 0,0 l/m 5,5 km/h (1 Bft) O-NO 67 5 min 4,9 C 16,9 C 7,9 km/h (2 Bft)
27.02.2017 13:25 12,8 C 6,5 C 12,0 C 17,3 C 17,3 C 4,5 C 60 % 64 % 100 % 1007,2 hPa 0,0 l/m 6,0 km/h (2 Bft) O-SO 112 5 min 5,2 C 17,3 C 6,4 km/h (2 Bft)
27.02.2017 13:30 12,9 C 6,5 C 12,0 C 17,6 C 17,6 C 4,7 C 59 % 64 % 100 % 1007,2 hPa 0,0 l/m 6,3 km/h (2 Bft) W-SW 247 5 min 5,1 C 17,6 C 8,7 km/h (2 Bft)
27.02.2017 13:35 13,1 C 6,5 C 12,2 C 17,9 C 17,9 C 4,8 C 59 % 65 % 100 % 1006,6 hPa 0,0 l/m 6,1 km/h (2 Bft) S-SO 157 5 min 5,3 C 17,9 C 4,5 km/h (1 Bft)
27.02.2017 13:40 13,2 C 6,5 C 12,3 C 18,2 C 18,2 C 5,0 C 59 % 65 % 100 % 1006,6 hPa 0,0 l/m 5,5 km/h (1 Bft) S-SO 157 5 min 5,4 C 18,2 C 4,5 km/h (1 Bft)
27.02.2017 13:45 13,2 C 6,6 C 12,4 C 17,7 C 17,7 C 4,5 C 56 % 62 % 100 % 1006,6 hPa 0,0 l/m 8,0 km/h (2 Bft) W-SW 247 5 min 4,6 C 17,7 C 13,2 km/h (3 Bft)
27.02.2017 13:50 13,2 C 6,6 C 12,4 C 17,4 C 17,4 C 4,2 C 57 % 62 % 100 % 1006,6 hPa 0,0 l/m 9,7 km/h (2 Bft) SW 225 5 min 4,9 C 17,4 C 9,7 km/h (2 Bft)
27.02.2017 13:55 13,3 C 6,6 C 12,4 C 17,6 C 17,6 C 4,3 C 57 % 62 % 100 % 1005,8 hPa 0,0 l/m 6,9 km/h (2 Bft) SW 225 5 min 5,0 C 17,6 C 6,1 km/h (2 Bft)
27.02.2017 14:00 13,4 C 6,6 C 12,5 C 18,0 C 18,0 C 4,6 C 57 % 62 % 100 % 1005,8 hPa 0,0 l/m 5,0 km/h (1 Bft) S-SO 157 5 min 5,1 C 18,0 C 7,6 km/h (2 Bft)
27.02.2017 14:05 13,7 C 6,6 C 12,7 C 18,0 C 18,0 C 4,3 C 55 % 61 % 100 % 1005,8 hPa 0,0 l/m 5,5 km/h (1 Bft) S-SO 157 5 min 4,8 C 18,0 C 7,6 km/h (2 Bft)
27.02.2017 14:10 13,7 C 6,7 C 12,7 C 18,1 C 18,1 C 4,4 C 55 % 61 % 100 % 1005,8 hPa 0,0 l/m 6,1 km/h (2 Bft) W 270 5 min 4,8 C 18,1 C 6,8 km/h (2 Bft)
27.02.2017 14:15 13,6 C 6,7 C 12,8 C 18,1 C 18,1 C 4,5 C 55 % 61 % 100 % 1005,8 hPa 0,0 l/m 6,3 km/h (2 Bft) SO 135 5 min 4,7 C 18,1 C 5,1 km/h (1 Bft)
27.02.2017 14:20 13,8 C 6,7 C 12,8 C 18,2 C 18,2 C 4,4 C 55 % 61 % 100 % 1005,8 hPa 0,0 l/m 6,8 km/h (2 Bft) S-SW 202 5 min 4,9 C 18,2 C 9,8 km/h (2 Bft)
27.02.2017 14:25 13,9 C 6,7 C 12,9 C 18,1 C 18,1 C 4,2 C 55 % 61 % 100 % 1005,8 hPa 0,0 l/m 6,6 km/h (2 Bft) O-NO 67 5 min 5,0 C 18,1 C 6,0 km/h (2 Bft)
27.02.2017 14:30 13,9 C 6,7 C 12,9 C 18,4 C 18,4 C 4,5 C 54 % 60 % 100 % 1005,8 hPa 0,0 l/m 6,0 km/h (2 Bft) O-SO 112 5 min 4,7 C 18,4 C 2,3 km/h (1 Bft)
27.02.2017 14:35 14,1 C 6,8 C 13,0 C 18,8 C 18,8 C 4,7 C 54 % 60 % 100 % 1005,0 hPa 0,0 l/m 3,9 km/h (1 Bft) SO 135 5 min 4,9 C 18,8 C 5,0 km/h (1 Bft)
27.02.2017 14:40 14,3 C 6,8 C 13,0 C 19,1 C 19,1 C 4,8 C 54 % 61 % 100 % 1005,0 hPa 0,0 l/m 3,7 km/h (1 Bft) W-SW 247 5 min 5,1 C 19,1 C 8,2 km/h (2 Bft)
27.02.2017 14:45 14,7 C 6,8 C 13,2 C 19,4 C 19,4 C 4,7 C 54 % 61 % 100 % 1005,0 hPa 0,0 l/m 4,0 km/h (1 Bft) NW 315 5 min 5,5 C 19,4 C 11,4 km/h (2 Bft)
27.02.2017 14:50 14,9 C 6,8 C 13,3 C 19,3 C 19,3 C 4,4 C 53 % 60 % 100 % 1005,0 hPa 0,0 l/m 5,0 km/h (1 Bft) SW 225 5 min 5,4 C 19,3 C 11,4 km/h (2 Bft)
27.02.2017 14:55 14,9 C 6,8 C 13,4 C 19,2 C 19,2 C 4,3 C 53 % 60 % 100 % 1004,7 hPa 0,0 l/m 5,3 km/h (1 Bft) N-NW 337 5 min 5,4 C 19,2 C 3,9 km/h (1 Bft)
27.02.2017 15:00 15,1 C 6,8 C 13,4 C 19,4 C 19,4 C 4,3 C 52 % 60 % 100 % 1004,7 hPa 0,0 l/m 4,8 km/h (1 Bft) S 180 5 min 5,3 C 19,4 C 2,6 km/h (1 Bft)
27.02.2017 15:05 15,1 C 6,8 C 13,5 C 18,9 C 18,9 C 3,8 C 51 % 59 % 100 % 1004,7 hPa 0,0 l/m 6,4 km/h (2 Bft) S 180 5 min 5,0 C 18,9 C 7,6 km/h (2 Bft)
27.02.2017 15:10 15,2 C 6,9 C 13,6 C 18,9 C 18,9 C 3,7 C 51 % 59 % 97 % 1004,7 hPa 0,0 l/m 6,0 km/h (2 Bft) O-SO 112 5 min 5,1 C 18,9 C 5,3 km/h (1 Bft)
27.02.2017 15:15 15,5 C 6,9 C 13,7 C 19,2 C 19,2 C 3,7 C 50 % 58 % 97 % 1004,2 hPa 0,0 l/m 4,7 km/h (1 Bft) W-SW 247 5 min 5,1 C 19,2 C 9,5 km/h (2 Bft)
27.02.2017 15:20 15,3 C 6,9 C 13,7 C 19,0 C 19,0 C 3,7 C 49 % 57 % 97 % 1004,2 hPa 0,0 l/m 6,1 km/h (2 Bft) SW 225 5 min 4,7 C 19,0 C 13,4 km/h (3 Bft)
27.02.2017 15:25 15,2 C 6,9 C 13,7 C 18,9 C 18,9 C 3,7 C 50 % 57 % 97 % 1004,2 hPa 0,0 l/m 5,6 km/h (1 Bft) S 180 5 min 4,8 C 18,9 C 10,0 km/h (2 Bft)
27.02.2017 15:30 15,3 C 6,9 C 13,6 C 19,1 C 19,1 C 3,8 C 49 % 57 % 100 % 1004,2 hPa 0,0 l/m 4,8 km/h (1 Bft) SW 225 5 min 4,7 C 19,1 C 3,7 km/h (1 Bft)
27.02.2017 15:35 15,5 C 6,9 C 13,6 C 19,2 C 19,2 C 3,7 C 50 % 57 % 97 % 1004,2 hPa 0,0 l/m 4,3 km/h (1 Bft) S 180 5 min 5,1 C 19,2 C 5,1 km/h (1 Bft)
27.02.2017 15:40 15,4 C 6,9 C 13,6 C 19,2 C 19,2 C 3,8 C 49 % 57 % 100 % 1004,2 hPa 0,0 l/m 4,5 km/h (1 Bft) S 180 5 min 4,7 C 19,2 C 5,3 km/h (1 Bft)
27.02.2017 15:45 15,2 C 6,9 C 13,6 C 19,1 C 19,1 C 3,9 C 49 % 56 % 100 % 1004,2 hPa 0,0 l/m 4,7 km/h (1 Bft) NW 315 5 min 4,6 C 19,1 C 5,0 km/h (1 Bft)
27.02.2017 15:50 15,2 C 6,9 C 13,7 C 19,2 C 19,2 C 4,0 C 50 % 57 % 100 % 1004,2 hPa 0,0 l/m 3,5 km/h (1 Bft) N-NO 22 5 min 4,8 C 19,2 C 1,6 km/h (1 Bft)
27.02.2017 15:55 15,3 C 7,0 C 13,6 C 19,8 C 19,8 C 4,5 C 50 % 56 % 100 % 1003,4 hPa 0,0 l/m 2,1 km/h (1 Bft) O-SO 112 5 min 4,9 C 19,8 C 2,3 km/h (1 Bft)
27.02.2017 16:00 15,3 C 7,0 C 13,6 C 19,6 C 19,6 C 4,3 C 49 % 56 % 100 % 1003,4 hPa 0,0 l/m 3,2 km/h (1 Bft) SW 225 5 min 4,7 C 19,6 C 5,1 km/h (1 Bft)
27.02.2017 16:05 15,3 C 7,0 C 13,5 C 19,5 C 19,5 C 4,2 C 49 % 56 % 100 % 1003,4 hPa 0,0 l/m 3,7 km/h (1 Bft) S 180 5 min 4,7 C 19,5 C 8,0 km/h (2 Bft)
27.02.2017 16:10 15,2 C 7,0 C 13,5 C 19,4 C 19,4 C 4,2 C 49 % 56 % 100 % 1003,4 hPa 0,0 l/m 3,5 km/h (1 Bft) SW 225 5 min 4,6 C 19,4 C 4,2 km/h (1 Bft)
27.02.2017 16:15 15,3 C 7,0 C 13,5 C 19,0 C 19,0 C 3,7 C 48 % 56 % 97 % 1003,6 hPa 0,0 l/m 4,3 km/h (1 Bft) SO 135 5 min 4,4 C 19,0 C 7,2 km/h (2 Bft)
27.02.2017 16:20 15,1 C 7,0 C 13,5 C 18,9 C 18,9 C 3,8 C 48 % 55 % 100 % 1003,6 hPa 0,0 l/m 4,0 km/h (1 Bft) N-NO 22 5 min 4,2 C 18,9 C 1,9 km/h (1 Bft)
27.02.2017 16:25 15,1 C 7,0 C 13,3 C 18,7 C 18,7 C 3,6 C 48 % 55 % 95 % 1003,6 hPa 0,0 l/m 3,7 km/h (1 Bft) W-SW 247 5 min 4,2 C 18,7 C 0,0 km/h (0 Bft)
27.02.2017 16:30 15,0 C 7,0 C 13,2 C 18,4 C 18,4 C 3,4 C 48 % 55 % 89 % 1003,6 hPa 0,0 l/m 3,5 km/h (1 Bft) S-SO 157 5 min 4,1 C 18,4 C 4,3 km/h (1 Bft)
27.02.2017 16:35 15,0 C 7,0 C 13,3 C 18,0 C 18,0 C 3,0 C 47 % 54 % 79 % 1002,9 hPa 0,0 l/m 3,4 km/h (1 Bft) NW 315 5 min 3,8 C 18,0 C 2,4 km/h (1 Bft)
27.02.2017 16:40 15,0 C 7,0 C 13,3 C 17,4 C 17,4 C 2,4 C 46 % 53 % 63 % 1002,9 hPa 0,0 l/m 4,0 km/h (1 Bft) O-SO 112 5 min 3,5 C 17,4 C 4,7 km/h (1 Bft)
27.02.2017 16:45 14,8 C 7,0 C 13,3 C 16,8 C 16,8 C 2,0 C 46 % 53 % 53 % 1002,9 hPa 0,0 l/m 3,9 km/h (1 Bft) SW 225 5 min 3,3 C 16,8 C 2,4 km/h (1 Bft)
27.02.2017 16:50 14,9 C 7,1 C 13,0 C 16,6 C 16,6 C 1,7 C 46 % 53 % 45 % 1002,9 hPa 0,0 l/m 4,2 km/h (1 Bft) S-SW 202 5 min 3,4 C 16,6 C 10,6 km/h (2 Bft)
27.02.2017 16:55 14,7 C 7,1 C 13,1 C 16,0 C 16,0 C 1,3 C 46 % 53 % 34 % 1002,9 hPa 0,0 l/m 4,0 km/h (1 Bft) S-SO 157 5 min 3,2 C 16,0 C 4,0 km/h (1 Bft)
27.02.2017 17:00 14,7 C 7,1 C 12,9 C 15,6 C 15,6 C 0,9 C 46 % 53 % 24 % 1002,9 hPa 0,0 l/m 4,8 km/h (1 Bft) SO 135 0 min 3,2 C 15,6 C 5,8 km/h (2 Bft)
27.02.2017 17:05 14,4 C 7,2 C 12,7 C 14,4 C 14,4 C 0,0 C 46 % 53 % 0 % 1002,9 hPa 0,0 l/m 4,5 km/h (1 Bft) S 180 0 min 2,9 C 14,4 C 4,2 km/h (1 Bft)
27.02.2017 17:10 14,1 C 7,2 C 12,4 C 14,0 C 13,8 C 0,0 C 46 % 54 % 0 % 1002,9 hPa 0,0 l/m 4,7 km/h (1 Bft) S 180 0 min 2,7 C 13,8 C 5,5 km/h (1 Bft)
27.02.2017 17:15 13,9 C 7,2 C 12,2 C 13,7 C 13,2 C 0,0 C 47 % 55 % 0 % 1002,1 hPa 0,0 l/m 5,5 km/h (1 Bft) S-SO 157 0 min 2,8 C 13,2 C 6,3 km/h (2 Bft)
27.02.2017 17:20 13,9 C 7,2 C 12,1 C 13,6 C 12,9 C 0,0 C 47 % 56 % 0 % 1002,1 hPa 0,0 l/m 6,1 km/h (2 Bft) S-SW 202 0 min 2,8 C 12,9 C 6,4 km/h (2 Bft)
27.02.2017 17:25 13,6 C 7,2 C 11,9 C 13,3 C 12,6 C 0,0 C 48 % 56 % 0 % 1002,1 hPa 0,0 l/m 5,8 km/h (2 Bft) S 180 0 min 2,8 C 12,6 C 9,5 km/h (2 Bft)
27.02.2017 17:30 13,5 C 7,2 C 11,8 C 13,2 C 12,5 C 0,0 C 48 % 57 % 0 % 1002,1 hPa 0,0 l/m 5,8 km/h (2 Bft) S 180 0 min 2,7 C 12,5 C 8,4 km/h (2 Bft)
27.02.2017 17:35 13,5 C 7,2 C 11,7 C 13,1 C 12,4 C 0,0 C 48 % 57 % 0 % 1001,8 hPa 0,0 l/m 6,0 km/h (2 Bft) W-SW 247 0 min 2,7 C 12,4 C 5,5 km/h (1 Bft)
27.02.2017 17:40 13,3 C 7,2 C 11,5 C 13,0 C 12,5 C 0,0 C 49 % 57 % 0 % 1001,8 hPa 0,0 l/m 5,3 km/h (1 Bft) S-SW 202 0 min 2,8 C 12,5 C 3,9 km/h (1 Bft)
27.02.2017 17:45 13,1 C 7,2 C 11,1 C 12,7 C 12,0 C 0,0 C 49 % 58 % 0 % 1001,8 hPa 0,0 l/m 4,0 km/h (1 Bft) S 180 0 min 2,6 C 12,0 C 4,2 km/h (1 Bft)
27.02.2017 17:50 12,9 C 7,2 C 11,0 C 12,6 C 11,9 C 0,0 C 50 % 59 % 0 % 1001,8 hPa 0,0 l/m 4,0 km/h (1 Bft) S 180 0 min 2,7 C 11,9 C 1,8 km/h (1 Bft)
27.02.2017 17:55 12,8 C 7,2 C 11,1 C 12,5 C 11,8 C 0,0 C 50 % 59 % 0 % 1001,9 hPa 0,0 l/m 4,8 km/h (1 Bft) SW 225 0 min 2,6 C 11,8 C 4,8 km/h (1 Bft)
27.02.2017 18:00 12,7 C 7,2 C 10,8 C 12,4 C 11,7 C 0,0 C 50 % 60 % 0 % 1001,9 hPa 0,0 l/m 4,7 km/h (1 Bft) S 180 0 min 2,6 C 11,7 C 9,7 km/h (2 Bft)
27.02.2017 18:05 12,6 C 7,2 C 10,7 C 12,3 C 11,6 C 0,0 C 51 % 60 % 0 % 1001,9 hPa 0,0 l/m 4,0 km/h (1 Bft) NO 45 0 min 2,7 C 11,6 C 1,6 km/h (1 Bft)
27.02.2017 18:10 12,4 C 7,2 C 10,4 C 12,0 C 11,3 C 0,0 C 51 % 60 % 0 % 1001,9 hPa 0,0 l/m 2,4 km/h (1 Bft) S-SO 157 0 min 2,6 C 11,3 C 3,5 km/h (1 Bft)
27.02.2017 18:15 12,3 C 7,2 C 10,1 C 11,9 C 11,1 C 0,0 C 52 % 61 % 0 % 1001,8 hPa 0,0 l/m 1,8 km/h (1 Bft) NO 45 0 min 2,7 C 11,1 C 3,1 km/h (1 Bft)
27.02.2017 18:20 12,1 C 7,2 C 10,0 C 11,7 C 11,0 C 0,0 C 52 % 62 % 0 % 1001,8 hPa 0,0 l/m 2,6 km/h (1 Bft) O 90 0 min 2,5 C 11,0 C 1,8 km/h (1 Bft)
27.02.2017 18:25 12,0 C 7,1 C 10,0 C 11,6 C 10,9 C 0,0 C 53 % 63 % 0 % 1001,8 hPa 0,0 l/m 3,2 km/h (1 Bft) SW 225 0 min 2,7 C 10,9 C 4,7 km/h (1 Bft)
27.02.2017 18:30 12,0 C 7,1 C 9,9 C 11,6 C 10,9 C 0,0 C 53 % 63 % 0 % 1001,8 hPa 0,0 l/m 2,9 km/h (1 Bft) S 180 0 min 2,7 C 10,9 C 4,2 km/h (1 Bft)
27.02.2017 18:35 11,8 C 7,1 C 9,9 C 11,4 C 10,6 C 0,0 C 54 % 63 % 0 % 1001,9 hPa 0,0 l/m 1,9 km/h (1 Bft) S-SO 157 0 min 2,8 C 10,6 C 3,2 km/h (1 Bft)
27.02.2017 18:40 11,7 C 7,1 C 9,7 C 11,3 C 10,4 C 0,0 C 54 % 64 % 0 % 1001,9 hPa 0,0 l/m 2,1 km/h (1 Bft) S-SO 157 0 min 2,7 C 10,4 C 7,2 km/h (2 Bft)
27.02.2017 18:45 11,6 C 7,1 C 9,5 C 11,2 C 10,3 C 0,0 C 55 % 64 % 0 % 1001,9 hPa 0,0 l/m 2,9 km/h (1 Bft) SW 225 0 min 2,9 C 10,3 C 3,2 km/h (1 Bft)
27.02.2017 18:50 11,4 C 7,1 C 9,2 C 11,0 C 10,1 C 0,0 C 55 % 64 % 0 % 1001,9 hPa 0,0 l/m 2,9 km/h (1 Bft) S 180 0 min 2,7 C 10,1 C 2,7 km/h (1 Bft)
27.02.2017 18:55 11,3 C 7,1 C 9,1 C 10,9 C 10,0 C 0,0 C 55 % 65 % 0 % 1001,5 hPa 0,0 l/m 2,3 km/h (1 Bft) S 180 0 min 2,6 C 10,0 C 4,2 km/h (1 Bft)
27.02.2017 19:00 11,2 C 7,1 C 8,8 C 10,7 C 9,8 C 0,0 C 55 % 65 % 0 % 1001,5 hPa 0,0 l/m 1,4 km/h (1 Bft) O 90 0 min 2,5 C 9,8 C 1,8 km/h (1 Bft)
27.02.2017 19:05 11,0 C 7,1 C 8,4 C 10,5 C 9,5 C 0,0 C 56 % 66 % 0 % 1001,5 hPa 0,0 l/m 1,4 km/h (1 Bft) S-SW 202 0 min 2,6 C 9,5 C 2,4 km/h (1 Bft)
27.02.2017 19:10 11,1 C 7,1 C 8,4 C 10,6 C 9,5 C 0,0 C 56 % 67 % 0 % 1001,5 hPa 0,0 l/m 1,8 km/h (1 Bft) S-SO 157 0 min 2,7 C 9,5 C 1,8 km/h (1 Bft)
27.02.2017 19:15 10,9 C 7,1 C 8,7 C 10,4 C 9,5 C 0,0 C 56 % 67 % 0 % 1001,9 hPa 0,0 l/m 2,6 km/h (1 Bft) SW 225 0 min 2,5 C 9,5 C 4,2 km/h (1 Bft)
27.02.2017 19:20 10,9 C 7,1 C 8,7 C 10,4 C 9,5 C 0,0 C 56 % 67 % 0 % 1001,9 hPa 0,0 l/m 2,9 km/h (1 Bft) SW 225 0 min 2,5 C 9,5 C 4,0 km/h (1 Bft)
27.02.2017 19:25 10,8 C 7,1 C 8,5 C 10,4 C 9,5 C 0,0 C 56 % 67 % 0 % 1001,9 hPa 0,0 l/m 2,4 km/h (1 Bft) O 90 0 min 2,4 C 9,5 C 0,0 km/h (0 Bft)
27.02.2017 19:30 10,7 C 7,1 C 8,4 C 10,3 C 9,5 C 0,0 C 57 % 67 % 0 % 1001,9 hPa 0,0 l/m 1,3 km/h (1 Bft) O 90 0 min 2,5 C 9,5 C 1,9 km/h (1 Bft)
27.02.2017 19:35 10,6 C 7,1 C 8,3 C 10,2 C 9,4 C 0,0 C 57 % 67 % 0 % 1001,4 hPa 0,0 l/m 0,8 km/h (0 Bft) S-SW 202 0 min 2,4 C 9,4 C 0,0 km/h (0 Bft)
27.02.2017 19:40 10,5 C 7,1 C 8,1 C 10,1 C 9,2 C 0,0 C 57 % 68 % 0 % 1001,4 hPa 0,0 l/m 0,8 km/h (0 Bft) W-SW 247 0 min 2,3 C 9,2 C 2,4 km/h (1 Bft)
27.02.2017 19:45 10,3 C 7,1 C 7,8 C 9,8 C 8,7 C 0,0 C 57 % 68 % 0 % 1001,4 hPa 0,0 l/m 0,5 km/h (0 Bft) W 270 0 min 2,2 C 8,7 C 0,0 km/h (0 Bft)
27.02.2017 19:50 10,0 C 7,1 C 7,5 C 9,4 C 8,3 C 0,0 C 57 % 69 % 0 % 1001,4 hPa 0,0 l/m 0,3 km/h (0 Bft) W 270 0 min 1,9 C 8,3 C 0,0 km/h (0 Bft)
27.02.2017 19:55 9,6 C 7,1 C 7,1 C 9,1 C 8,0 C 0,0 C 59 % 70 % 0 % 1001,2 hPa 0,0 l/m 0,0 km/h (0 Bft) N-NW 337 0 min 2,0 C 8,0 C 0,0 km/h (0 Bft)
27.02.2017 20:00 9,4 C 7,1 C 6,9 C 8,9 C 7,9 C 0,0 C 60 % 70 % 0 % 1001,2 hPa 0,0 l/m 0,0 km/h (0 Bft) O-SO 112 0 min 2,0 C 7,9 C 0,0 km/h (0 Bft)
27.02.2017 20:05 9,1 C 7,1 C 6,8 C 8,6 C 7,7 C 0,0 C 60 % 71 % 0 % 1001,2 hPa 0,0 l/m 0,0 km/h (0 Bft) SW 225 0 min 1,8 C 7,7 C 0,0 km/h (0 Bft)
27.02.2017 20:10 9,1 C 7,1 C 6,7 C 8,6 C 7,7 C 0,0 C 61 % 71 % 0 % 1001,2 hPa 0,0 l/m 0,0 km/h (0 Bft) O-NO 67 0 min 2,0 C 7,7 C 0,0 km/h (0 Bft)
27.02.2017 20:15 8,8 C 7,1 C 6,5 C 8,4 C 7,7 C 0,0 C 62 % 72 % 0 % 1000,8 hPa 0,0 l/m 0,2 km/h (0 Bft) SO 135 0 min 1,9 C 7,7 C 0,0 km/h (0 Bft)
27.02.2017 20:20 8,8 C 7,1 C 6,4 C 8,4 C 7,6 C 0,0 C 62 % 72 % 0 % 1000,8 hPa 0,0 l/m 0,0 km/h (0 Bft) O 90 0 min 1,9 C 7,6 C 0,0 km/h (0 Bft)
27.02.2017 20:25 8,7 C 7,1 C 6,5 C 8,3 C 7,6 C 0,0 C 63 % 73 % 0 % 1000,8 hPa 0,0 l/m 0,3 km/h (0 Bft) O 90 0 min 2,1 C 7,6 C 1,8 km/h (1 Bft)
27.02.2017 20:30 8,9 C 7,1 C 6,5 C 8,5 C 7,7 C 0,0 C 63 % 74 % 0 % 1000,8 hPa 0,0 l/m 0,5 km/h (0 Bft) O-NO 67 0 min 2,2 C 7,7 C 0,0 km/h (0 Bft)
27.02.2017 20:35 9,1 C 7,1 C 7,2 C 8,8 C 8,2 C 0,0 C 63 % 74 % 0 % 1000,4 hPa 0,0 l/m 1,3 km/h (1 Bft) O-NO 67 0 min 2,4 C 8,2 C 2,1 km/h (1 Bft)
27.02.2017 20:40 9,3 C 7,1 C 7,6 C 9,0 C 8,4 C 0,0 C 63 % 73 % 0 % 1000,4 hPa 0,0 l/m 1,3 km/h (1 Bft) O-SO 112 0 min 2,6 C 8,4 C 0,0 km/h (0 Bft)
27.02.2017 20:45 9,4 C 7,1 C 7,7 C 9,1 C 8,6 C 0,0 C 62 % 72 % 0 % 1000,4 hPa 0,0 l/m 1,1 km/h (1 Bft) O 90 0 min 2,5 C 8,6 C 1,9 km/h (1 Bft)
27.02.2017 20:50 9,5 C 7,1 C 7,6 C 9,2 C 8,7 C 0,0 C 62 % 72 % 0 % 1000,4 hPa 0,0 l/m 0,8 km/h (0 Bft) O 90 0 min 2,6 C 8,7 C 2,4 km/h (1 Bft)
27.02.2017 20:55 9,4 C 6,9 C 7,5 C 9,2 C 8,7 C 0,0 C 62 % 71 % 0 % 1000,4 hPa 0,0 l/m 0,5 km/h (0 Bft) O-NO 67 0 min 2,5 C 8,7 C 0,0 km/h (0 Bft)
27.02.2017 21:00 9,4 C 6,9 C 7,3 C 9,1 C 8,6 C 0,0 C 62 % 71 % 0 % 1000,4 hPa 0,0 l/m 0,3 km/h (0 Bft) O-NO 67 0 min 2,5 C 8,6 C 0,0 km/h (0 Bft)
27.02.2017 21:05 9,2 C 6,9 C 7,3 C 8,9 C 8,4 C 0,0 C 62 % 72 % 0 % 1000,4 hPa 0,0 l/m 0,3 km/h (0 Bft) S-SW 202 0 min 2,3 C 8,4 C 1,6 km/h (1 Bft)
27.02.2017 21:10 9,5 C 6,9 C 7,7 C 9,2 C 8,6 C 0,0 C 62 % 72 % 0 % 1000,4 hPa 0,0 l/m 0,6 km/h (0 Bft) SO 135 0 min 2,6 C 8,6 C 2,4 km/h (1 Bft)
27.02.2017 21:15 9,7 C 6,9 C 8,1 C 9,4 C 8,9 C 0,0 C 61 % 71 % 0 % 1000,5 hPa 0,0 l/m 1,0 km/h (0 Bft) O-NO 67 0 min 2,5 C 8,9 C 3,5 km/h (1 Bft)
27.02.2017 21:20 10,0 C 6,9 C 8,4 C 9,8 C 9,3 C 0,0 C 60 % 70 % 0 % 1000,5 hPa 0,0 l/m 1,3 km/h (1 Bft) W-SW 247 0 min 2,6 C 9,3 C 2,4 km/h (1 Bft)
27.02.2017 21:25 10,3 C 6,9 C 8,7 C 10,1 C 9,6 C 0,0 C 59 % 68 % 0 % 1000,5 hPa 0,0 l/m 1,9 km/h (1 Bft) O 90 0 min 2,6 C 9,6 C 1,9 km/h (1 Bft)
27.02.2017 21:30 10,3 C 6,9 C 8,7 C 10,1 C 9,7 C 0,0 C 58 % 67 % 0 % 1000,5 hPa 0,0 l/m 1,6 km/h (1 Bft) O-SO 112 0 min 2,4 C 9,7 C 2,1 km/h (1 Bft)
27.02.2017 21:35 10,4 C 6,9 C 8,7 C 10,2 C 9,8 C 0,0 C 58 % 67 % 0 % 1000,2 hPa 0,0 l/m 1,4 km/h (1 Bft) O-SO 112 0 min 2,5 C 9,8 C 2,6 km/h (1 Bft)
27.02.2017 21:40 10,4 C 6,9 C 8,7 C 10,2 C 9,8 C 0,0 C 57 % 67 % 0 % 1000,2 hPa 0,0 l/m 1,6 km/h (1 Bft) SW 225 0 min 2,3 C 9,8 C 2,7 km/h (1 Bft)
27.02.2017 21:45 10,5 C 6,9 C 8,8 C 10,3 C 9,9 C 0,0 C 57 % 67 % 0 % 1000,2 hPa 0,0 l/m 1,8 km/h (1 Bft) SW 225 0 min 2,3 C 9,9 C 3,2 km/h (1 Bft)
27.02.2017 21:50 10,5 C 6,9 C 8,8 C 10,3 C 9,9 C 0,0 C 57 % 66 % 0 % 1000,2 hPa 0,0 l/m 1,9 km/h (1 Bft) SW 225 0 min 2,3 C 9,9 C 3,2 km/h (1 Bft)
27.02.2017 21:55 10,6 C 6,9 C 9,0 C 10,4 C 9,9 C 0,0 C 56 % 66 % 0 % 999,8 hPa 0,0 l/m 2,3 km/h (1 Bft) SO 135 0 min 2,2 C 9,9 C 9,7 km/h (2 Bft)
27.02.2017 22:00 10,7 C 6,9 C 9,1 C 10,5 C 10,1 C 0,0 C 56 % 66 % 0 % 999,8 hPa 0,0 l/m 2,6 km/h (1 Bft) S-SO 157 0 min 2,3 C 10,1 C 7,6 km/h (2 Bft)
27.02.2017 22:05 11,1 C 6,9 C 9,3 C 10,9 C 10,4 C 0,0 C 55 % 65 % 0 % 999,8 hPa 0,0 l/m 4,2 km/h (1 Bft) SW 225 0 min 2,4 C 10,4 C 5,8 km/h (2 Bft)
27.02.2017 22:10 11,2 C 6,9 C 9,5 C 10,9 C 10,3 C 0,0 C 54 % 65 % 0 % 999,8 hPa 0,0 l/m 5,5 km/h (1 Bft) SW 225 0 min 2,2 C 10,3 C 5,8 km/h (2 Bft)
27.02.2017 22:15 11,3 C 6,9 C 9,5 C 11,1 C 10,6 C 0,0 C 54 % 64 % 0 % 999,4 hPa 0,0 l/m 4,8 km/h (1 Bft) S-SO 157 0 min 2,3 C 10,6 C 9,7 km/h (2 Bft)
27.02.2017 22:20 11,3 C 6,9 C 9,5 C 11,1 C 10,8 C 0,0 C 54 % 64 % 0 % 999,4 hPa 0,0 l/m 4,2 km/h (1 Bft) W-NW 292 0 min 2,3 C 10,8 C 2,7 km/h (1 Bft)
27.02.2017 22:25 11,3 C 6,9 C 9,7 C 11,1 C 10,8 C 0,0 C 53 % 64 % 0 % 999,4 hPa 0,0 l/m 4,0 km/h (1 Bft) SW 225 0 min 2,1 C 10,8 C 5,0 km/h (1 Bft)
27.02.2017 22:30 11,5 C 6,9 C 9,7 C 11,3 C 10,8 C 0,0 C 53 % 63 % 0 % 999,4 hPa 0,0 l/m 4,7 km/h (1 Bft) S 180 0 min 2,3 C 10,8 C 6,4 km/h (2 Bft)
27.02.2017 22:35 11,7 C 6,9 C 9,9 C 11,4 C 10,9 C 0,0 C 53 % 62 % 0 % 999,2 hPa 0,0 l/m 5,6 km/h (1 Bft) S 180 0 min 2,4 C 10,9 C 10,3 km/h (2 Bft)
27.02.2017 22:40 11,6 C 6,9 C 9,7 C 11,4 C 11,1 C 0,0 C 53 % 62 % 0 % 999,2 hPa 0,0 l/m 4,7 km/h (1 Bft) S 180 0 min 2,4 C 11,1 C 2,4 km/h (1 Bft)
27.02.2017 22:45 11,6 C 6,9 C 9,6 C 11,4 C 10,9 C 0,0 C 53 % 63 % 0 % 999,2 hPa 0,0 l/m 3,1 km/h (1 Bft) SO 135 0 min 2,4 C 10,9 C 6,1 km/h (2 Bft)
27.02.2017 22:50 11,5 C 6,9 C 9,6 C 11,3 C 10,8 C 0,0 C 53 % 63 % 0 % 999,2 hPa 0,0 l/m 2,6 km/h (1 Bft) O-NO 67 0 min 2,3 C 10,8 C 2,7 km/h (1 Bft)
27.02.2017 22:55 11,5 C 6,9 C 9,6 C 11,2 C 10,7 C 0,0 C 53 % 63 % 0 % 999,1 hPa 0,0 l/m 1,9 km/h (1 Bft) O-SO 112 0 min 2,3 C 10,7 C 3,4 km/h (1 Bft)
27.02.2017 23:00 11,5 C 6,9 C 9,7 C 11,2 C 10,7 C 0,0 C 53 % 62 % 0 % 999,1 hPa 0,0 l/m 1,3 km/h (1 Bft) NW 315 0 min 2,3 C 10,7 C 3,2 km/h (1 Bft)
27.02.2017 23:05 11,6 C 7,0 C 9,9 C 11,3 C 10,8 C 0,0 C 53 % 62 % 0 % 999,1 hPa 0,0 l/m 1,9 km/h (1 Bft) S 180 0 min 2,4 C 10,8 C 5,8 km/h (2 Bft)
27.02.2017 23:10 11,6 C 7,0 C 9,8 C 11,3 C 10,8 C 0,0 C 53 % 61 % 0 % 999,1 hPa 0,0 l/m 1,6 km/h (1 Bft) O-SO 112 0 min 2,4 C 10,8 C 1,6 km/h (1 Bft)
27.02.2017 23:15 11,7 C 7,0 C 9,9 C 11,4 C 10,7 C 0,0 C 53 % 61 % 0 % 998,8 hPa 0,0 l/m 2,1 km/h (1 Bft) S-SW 202 0 min 2,4 C 10,7 C 6,1 km/h (2 Bft)
27.02.2017 23:20 11,6 C 7,0 C 9,9 C 11,3 C 10,7 C 0,0 C 53 % 61 % 0 % 998,8 hPa 0,0 l/m 1,8 km/h (1 Bft) N-NO 22 0 min 2,4 C 10,7 C 0,0 km/h (0 Bft)
27.02.2017 23:25 11,5 C 7,0 C 9,7 C 11,1 C 10,4 C 0,0 C 52 % 61 % 0 % 998,8 hPa 0,0 l/m 1,4 km/h (1 Bft) O-NO 67 0 min 2,0 C 10,4 C 2,7 km/h (1 Bft)
27.02.2017 23:30 11,5 C 7,0 C 9,5 C 11,1 C 10,3 C 0,0 C 53 % 62 % 0 % 998,8 hPa 0,0 l/m 1,3 km/h (1 Bft) O-SO 112 0 min 2,3 C 10,3 C 1,8 km/h (1 Bft)
27.02.2017 23:35 11,3 C 6,9 C 9,4 C 10,9 C 10,1 C 0,0 C 53 % 62 % 0 % 998,4 hPa 0,0 l/m 1,6 km/h (1 Bft) NO 45 0 min 2,1 C 10,1 C 1,8 km/h (1 Bft)
27.02.2017 23:40 11,0 C 6,9 C 9,2 C 10,6 C 9,9 C 0,0 C 54 % 63 % 0 % 998,4 hPa 0,0 l/m 1,4 km/h (1 Bft) O-SO 112 0 min 2,1 C 9,9 C 3,1 km/h (1 Bft)
27.02.2017 23:45 10,8 C 6,9 C 9,0 C 10,4 C 9,7 C 0,0 C 54 % 63 % 0 % 998,4 hPa 0,0 l/m 1,4 km/h (1 Bft) O-NO 67 0 min 1,9 C 9,7 C 3,4 km/h (1 Bft)
27.02.2017 23:50 10,7 C 6,9 C 9,1 C 10,4 C 9,7 C 0,0 C 54 % 63 % 0 % 998,4 hPa 0,0 l/m 1,9 km/h (1 Bft) SO 135 0 min 1,8 C 9,7 C 2,3 km/h (1 Bft)
27.02.2017 23:55 10,8 C 6,9 C 9,1 C 10,4 C 9,7 C 0,0 C 54 % 63 % 0 % 998,1 hPa 0,0 l/m 2,3 km/h (1 Bft) O-NO 67 0 min 1,9 C 9,7 C 2,1 km/h (1 Bft)
_ Min-Zeit 03:05 00:00 20:20 02:50 02:35 00:00 16:40 16:40 00:00 23:55 - 19:55 - - - 02:20 02:10 03:00
Minimum _ 7,6 C 5,7 C 6,4 C 7,5 C 7,0 C 0,0 C 46 % 53 % 0 % 998,1 hPa - 0,0 km/h (0 Bft) - - - 0,2 C 6,2 C 0,0 km/h (0 Bft)
_ Max-Zeit 15:15 17:05 15:15 15:55 15:55 13:40 08:00 08:00 11:55 00:55 00:00 12:50 - - 11:45 14:45 15:55 12:05
Maximum _ 15,5 C 7,2 C 13,7 C 19,8 C 19,8 C 5,0 C 68 % 74 % 100 % 1014,2 hPa 0,0 l/m 10,5 km/h
S (2 Bft)
- - 5 min 5,5 C 19,8 C 23,2 km/h
W-SW (4 Bft)
Durchschnitt _ 10,5 C 6,3 C 9,4 C 11,5 C 11,2 C 1,1 C 59 % 65 % 26 % 1007,5 hPa #0,0 l/m 3,8 km/h (1 Bft) S - #5:15 h 2,7 C 11,2 C 5,3 km/h (1 Bft)
2017 www.wetterstation-wechselburg.de